EXS13G EGCC-LOWW

Flight info

Callsign EXS13G
Flight time 1h 59m
Altitude 35000
Route DESIG L603 LAMSO DCT EVELI DCT RKN DCT KUMER DCT GALMA DCT TALEG L620 PIKIB DCT OMELO DCT EVIKU DCT BITSI DCT MIKOV MIKOV8W
Aircraft A321/M-SDE3FGHIRWY/LB1

Departure

Time 2026-05-06 18:33
Airport Manchester Airport (EGCC)

Arrival

Time 2026-05-06 20:33
Airport Vienna International Airport (LOWW)
Time Latitude Longitude Altitude Speed Heading
2026-05-06 18:06 53.36257 -2.27691 255 ft 0 kts 196°
2026-05-06 18:20 53.36267 -2.27686 255 ft 4 kts 198°
2026-05-06 18:21 53.36292 -2.27669 255 ft 4 kts 211°
2026-05-06 18:21 53.36312 -2.27641 255 ft 4 kts 240°
2026-05-06 18:21 53.36317 -2.27610 255 ft 1 kts 284°
2026-05-06 18:21 53.36317 -2.27609 255 ft 2 kts 284°
2026-05-06 18:25 53.36318 -2.27618 255 ft 4 kts 284°
2026-05-06 18:25 53.36329 -2.27691 255 ft 7 kts 285°
2026-05-06 18:25 53.36341 -2.27760 255 ft 6 kts 290°
2026-05-06 18:25 53.36362 -2.27812 255 ft 5 kts 309°
2026-05-06 18:26 53.36384 -2.27858 255 ft 5 kts 307°
2026-05-06 18:26 53.36369 -2.27972 255 ft 17 kts 231°
2026-05-06 18:26 53.36300 -2.28058 255 ft 0 kts 198°
2026-05-06 18:27 53.36267 -2.28075 255 ft 9 kts 196°
2026-05-06 18:27 53.36213 -2.28081 255 ft 7 kts 162°
2026-05-06 18:27 53.36176 -2.28035 255 ft 6 kts 141°
2026-05-06 18:27 53.36141 -2.28035 255 ft 5 kts 193°
2026-05-06 18:28 53.36102 -2.28046 255 ft 8 kts 181°
2026-05-06 18:28 53.36024 -2.27958 255 ft 16 kts 136°
2026-05-06 18:28 53.35942 -2.27860 255 ft 14 kts 174°
2026-05-06 18:28 53.35851 -2.27860 255 ft 12 kts 187°
2026-05-06 18:29 53.35768 -2.27873 255 ft 12 kts 185°
2026-05-06 18:29 53.35678 -2.27888 251 ft 15 kts 186°
2026-05-06 18:29 53.35592 -2.27978 248 ft 16 kts 228°
2026-05-06 18:29 53.35505 -2.28113 244 ft 18 kts 211°
2026-05-06 18:30 53.35382 -2.28170 240 ft 19 kts 189°
2026-05-06 18:30 53.35258 -2.28263 238 ft 20 kts 222°
2026-05-06 18:30 53.35158 -2.28451 230 ft 24 kts 232°
2026-05-06 18:30 53.35051 -2.28679 223 ft 26 kts 230°
2026-05-06 18:31 53.34932 -2.28885 217 ft 26 kts 225°
2026-05-06 18:31 53.34838 -2.29046 215 ft 14 kts 221°
2026-05-06 18:31 53.34742 -2.29050 212 ft 15 kts 163°
2026-05-06 18:31 53.34678 -2.28952 211 ft 8 kts 79°
2026-05-06 18:32 53.34697 -2.28900 213 ft 3 kts 49°
2026-05-06 18:32 53.34698 -2.28899 213 ft 0 kts 49°
2026-05-06 18:32 53.34701 -2.28893 212 ft 4 kts 49°
2026-05-06 18:33 53.34902 -2.28493 224 ft 89 kts 52°
2026-05-06 18:33 53.35441 -2.27351 268 ft 158 kts 54°
2026-05-06 18:33 53.36166 -2.25843 1009 ft 168 kts 53°
2026-05-06 18:33 53.36925 -2.24279 1953 ft 178 kts 52°
2026-05-06 18:34 53.37715 -2.22748 2733 ft 172 kts 50°
2026-05-06 18:34 53.38534 -2.21226 3174 ft 180 kts 51°
2026-05-06 18:34 53.39371 -2.19593 3554 ft 192 kts 53°
2026-05-06 18:34 53.40223 -2.17712 3730 ft 213 kts 55°
2026-05-06 18:35 53.41160 -2.15594 3863 ft 239 kts 54°
2026-05-06 18:35 53.42204 -2.13264 4249 ft 258 kts 53°
2026-05-06 18:35 53.43310 -2.10838 4849 ft 266 kts 52°
2026-05-06 18:35 53.44442 -2.08376 4987 ft 267 kts 52°
2026-05-06 18:36 53.45569 -2.05942 5017 ft 267 kts 51°
2026-05-06 18:36 53.46706 -2.03504 5021 ft 265 kts 51°
2026-05-06 18:36 53.47846 -2.01072 5022 ft 264 kts 51°
2026-05-06 18:36 53.51493 -1.93115 4984 ft 265 kts 63°
2026-05-06 18:37 53.51737 -1.83625 5530 ft 275 kts 107°
2026-05-06 18:37 53.50267 -1.75342 7582 ft 284 kts 105°
2026-05-06 18:37 53.47118 -1.57490 10722 ft 325 kts 106°
2026-05-06 18:37 53.44233 -1.41388 11740 ft 383 kts 106°
2026-05-06 18:38 53.41121 -1.24228 13984 ft 395 kts 106°
2026-05-06 18:38 53.37868 -1.06359 15869 ft 406 kts 107°
2026-05-06 18:38 53.34492 -0.88058 17525 ft 416 kts 107°
2026-05-06 18:38 53.31012 -0.69344 19070 ft 425 kts 107°
2026-05-06 18:39 53.27413 -0.50227 20554 ft 434 kts 108°
2026-05-06 18:39 53.23710 -0.30788 22075 ft 444 kts 108°
2026-05-06 18:39 53.19900 -0.10886 23528 ft 454 kts 108°
2026-05-06 18:40 53.13376 0.22656 25464 ft 468 kts 108°
2026-05-06 18:40 53.12358 0.27831 25744 ft 470 kts 108°
2026-05-06 18:40 53.10251 0.38552 28384 ft 420 kts 109°
2026-05-06 18:40 53.09384 0.42954 29858 ft 389 kts 109°
2026-05-06 18:41 53.08563 0.47112 30824 ft 374 kts 109°
2026-05-06 18:41 53.07737 0.51250 30948 ft 379 kts 110°
2026-05-06 18:41 53.06896 0.55428 31078 ft 383 kts 110°
2026-05-06 18:41 53.06043 0.59653 31204 ft 387 kts 110°
2026-05-06 18:42 53.05185 0.63908 31330 ft 390 kts 110°
2026-05-06 18:42 53.04321 0.68206 31460 ft 393 kts 110°
2026-05-06 18:42 53.03450 0.72536 31590 ft 396 kts 110°
2026-05-06 18:42 53.02574 0.76885 31730 ft 399 kts 110°
2026-05-06 18:43 53.01689 0.81273 31867 ft 401 kts 110°
2026-05-06 18:43 53.00809 0.85627 31984 ft 404 kts 110°
2026-05-06 18:43 52.99906 0.90062 32108 ft 407 kts 110°
2026-05-06 18:43 52.98994 0.94524 32241 ft 410 kts 110°
2026-05-06 18:44 52.98088 0.99046 32367 ft 414 kts 107°
2026-05-06 18:44 52.97438 1.03735 32507 ft 418 kts 102°
2026-05-06 18:44 52.96909 1.08483 32633 ft 421 kts 102°
2026-05-06 18:44 52.96364 1.13272 32771 ft 424 kts 102°
2026-05-06 18:45 52.95803 1.18102 32914 ft 427 kts 102°
2026-05-06 18:45 52.95233 1.22951 33041 ft 431 kts 102°
2026-05-06 18:45 52.93440 1.38236 33487 ft 440 kts 102°
2026-05-06 18:45 52.91878 1.51520 33877 ft 447 kts 102°
2026-05-06 18:46 52.88608 1.78739 34543 ft 461 kts 103°
2026-05-06 18:46 52.86042 1.99652 35057 ft 466 kts 103°
2026-05-06 18:46 52.83416 2.20804 35056 ft 468 kts 103°
2026-05-06 18:46 52.80783 2.41686 34953 ft 468 kts 103°
2026-05-06 18:47 52.78090 2.62651 34843 ft 469 kts 103°
2026-05-06 18:47 52.72219 3.04112 34937 ft 458 kts 114°
2026-05-06 18:47 52.67546 3.23804 35076 ft 458 kts 112°
2026-05-06 18:48 52.63314 3.43839 35093 ft 461 kts 103°
2026-05-06 18:48 52.57690 3.85190 34926 ft 468 kts 104°
2026-05-06 18:48 52.54791 4.05937 34820 ft 469 kts 104°
2026-05-06 18:49 52.51871 4.26551 34797 ft 464 kts 104°
2026-05-06 18:49 52.46950 4.60749 34771 ft 468 kts 104°
2026-05-06 18:50 52.41605 4.97008 34780 ft 467 kts 105°
2026-05-06 18:50 52.40075 5.07267 34950 ft 463 kts 105°
2026-05-06 18:51 52.37002 5.27579 34926 ft 463 kts 105°
2026-05-06 18:51 52.30864 5.67547 34939 ft 463 kts 105°
2026-05-06 18:52 52.24439 6.08251 34944 ft 462 kts 106°
2026-05-06 18:52 52.17939 6.48453 34917 ft 461 kts 107°
2026-05-06 18:53 52.15099 6.65699 34918 ft 462 kts 107°
2026-05-06 18:53 52.13413 6.75813 34912 ft 462 kts 107°
2026-05-06 18:54 52.11870 6.85984 34920 ft 463 kts 104°
2026-05-06 18:54 52.10560 6.96175 34909 ft 463 kts 103°
2026-05-06 18:55 52.09228 7.06400 34899 ft 462 kts 104°
2026-05-06 18:55 52.07817 7.16581 34883 ft 461 kts 105°
2026-05-06 18:56 52.06383 7.26740 34884 ft 461 kts 105°
2026-05-06 18:56 52.04952 7.36886 34877 ft 461 kts 105°
2026-05-06 18:57 52.03513 7.47043 34895 ft 461 kts 105°
2026-05-06 18:57 52.02070 7.57194 34902 ft 461 kts 105°
2026-05-06 18:58 52.00626 7.67264 34896 ft 461 kts 105°
2026-05-06 18:58 51.99155 7.77410 34895 ft 461 kts 105°
2026-05-06 18:59 51.97673 7.87542 34877 ft 461 kts 105°
2026-05-06 18:59 51.96192 7.97678 34884 ft 462 kts 105°
2026-05-06 19:00 51.94708 8.07761 34882 ft 462 kts 106°
2026-05-06 19:00 51.93203 8.17911 34883 ft 462 kts 106°
2026-05-06 19:01 51.91687 8.28041 34876 ft 462 kts 106°
2026-05-06 19:01 51.90167 8.38102 34870 ft 462 kts 106°
2026-05-06 19:02 51.88643 8.48200 34865 ft 462 kts 106°
2026-05-06 19:02 51.87114 8.58289 34866 ft 462 kts 107°
2026-05-06 19:03 51.85567 8.68387 34863 ft 462 kts 107°
2026-05-06 19:03 51.84020 8.78416 34862 ft 462 kts 107°
2026-05-06 19:04 51.82450 8.88482 34846 ft 462 kts 107°
2026-05-06 19:04 51.80877 8.98568 34838 ft 462 kts 107°
2026-05-06 19:05 51.79294 9.08638 34837 ft 462 kts 107°
2026-05-06 19:05 51.77706 9.18701 34831 ft 462 kts 107°
2026-05-06 19:06 51.76123 9.28725 34833 ft 462 kts 107°
2026-05-06 19:06 51.74515 9.38787 34833 ft 462 kts 107°
2026-05-06 19:07 51.70027 9.66488 34833 ft 463 kts 108°
2026-05-06 19:07 51.63408 10.06616 34812 ft 463 kts 108°
2026-05-06 19:08 51.56637 10.46709 34787 ft 464 kts 109°
2026-05-06 19:08 51.54288 10.60413 34794 ft 464 kts 109°
2026-05-06 19:09 51.52565 10.70358 34786 ft 464 kts 110°
2026-05-06 19:09 51.50686 10.80291 34786 ft 465 kts 111°
2026-05-06 19:10 51.48725 10.90187 34792 ft 465 kts 112°
2026-05-06 19:10 51.46782 11.00034 34793 ft 466 kts 111°
2026-05-06 19:11 51.44850 11.09958 34777 ft 466 kts 112°
2026-05-06 19:11 51.42912 11.19898 34779 ft 467 kts 112°
2026-05-06 19:12 51.40953 11.29843 34781 ft 468 kts 112°
2026-05-06 19:12 51.38998 11.39724 34783 ft 468 kts 112°
2026-05-06 19:13 51.37026 11.49675 34777 ft 468 kts 112°
2026-05-06 19:13 51.35041 11.59611 34767 ft 469 kts 112°
2026-05-06 19:14 51.33036 11.69561 34774 ft 469 kts 112°
2026-05-06 19:14 51.31038 11.79436 34772 ft 470 kts 113°
2026-05-06 19:15 51.29021 11.89377 34780 ft 470 kts 113°
2026-05-06 19:15 51.26994 11.99320 34780 ft 470 kts 113°
2026-05-06 19:16 51.24969 12.09194 34759 ft 470 kts 113°
2026-05-06 19:16 51.22914 12.19138 34772 ft 471 kts 113°
2026-05-06 19:17 51.20853 12.29073 34781 ft 471 kts 113°
2026-05-06 19:17 51.18799 12.38942 34789 ft 471 kts 114°
2026-05-06 19:18 51.16722 12.48851 34781 ft 472 kts 114°
2026-05-06 19:18 51.14628 12.58783 34790 ft 473 kts 114°
2026-05-06 19:19 51.12529 12.68724 34793 ft 473 kts 114°
2026-05-06 19:19 51.10435 12.78587 34783 ft 472 kts 114°
2026-05-06 19:20 51.08322 12.88469 34775 ft 471 kts 114°
2026-05-06 19:20 51.06207 12.98337 34790 ft 470 kts 114°
2026-05-06 19:21 51.04092 13.08167 34794 ft 470 kts 114°
2026-05-06 19:21 51.01968 13.17976 34789 ft 469 kts 114°
2026-05-06 19:22 50.99842 13.27774 34768 ft 468 kts 114°
2026-05-06 19:22 50.97726 13.37479 34768 ft 467 kts 114°
2026-05-06 19:23 50.95585 13.47207 34787 ft 467 kts 115°
2026-05-06 19:23 50.93444 13.56916 34780 ft 466 kts 115°
2026-05-06 19:24 50.91290 13.66641 34783 ft 466 kts 115°
2026-05-06 19:24 50.89145 13.76264 34772 ft 466 kts 115°
2026-05-06 19:25 50.86971 13.85947 34764 ft 465 kts 115°
2026-05-06 19:25 50.84702 13.95480 34762 ft 461 kts 122°
2026-05-06 19:26 50.81177 14.03722 34764 ft 446 kts 139°
2026-05-06 19:26 50.76664 14.10369 34767 ft 442 kts 143°
2026-05-06 19:27 50.72119 14.16925 34731 ft 443 kts 143°
2026-05-06 19:27 50.67559 14.23490 34737 ft 444 kts 143°
2026-05-06 19:28 50.63018 14.30009 34741 ft 444 kts 143°
2026-05-06 19:28 50.59189 14.35487 34742 ft 444 kts 143°
2026-05-06 19:29 50.53863 14.43087 34758 ft 444 kts 144°
2026-05-06 19:29 50.49275 14.49610 34752 ft 444 kts 144°
2026-05-06 19:30 50.44698 14.56125 34736 ft 444 kts 143°
2026-05-06 19:30 50.40256 14.62814 34730 ft 445 kts 141°
2026-05-06 19:31 50.35843 14.69641 34739 ft 445 kts 141°
2026-05-06 19:31 50.29202 14.79732 34757 ft 445 kts 142°
2026-05-06 19:32 50.24730 14.86443 34737 ft 445 kts 142°
2026-05-06 19:32 50.20245 14.93160 34746 ft 445 kts 142°
2026-05-06 19:33 50.15776 14.99851 34757 ft 446 kts 142°
2026-05-06 19:33 50.11325 15.06504 34754 ft 446 kts 142°
2026-05-06 19:34 50.06839 15.13188 34755 ft 446 kts 142°
2026-05-06 19:34 50.03075 15.18781 34757 ft 446 kts 142°
2026-05-06 19:35 49.98611 15.25385 34733 ft 446 kts 143°
2026-05-06 19:35 49.94105 15.32033 34740 ft 447 kts 143°
2026-05-06 19:36 49.89587 15.38688 34746 ft 447 kts 143°
2026-05-06 19:36 49.85064 15.45329 34755 ft 448 kts 143°
2026-05-06 19:37 49.80543 15.51961 34758 ft 447 kts 143°
2026-05-06 19:37 49.76038 15.58534 34546 ft 447 kts 144°
2026-05-06 19:38 49.73776 15.61823 34310 ft 447 kts 144°
2026-05-06 19:38 49.71507 15.65122 34060 ft 446 kts 144°
2026-05-06 19:38 49.69245 15.68413 33830 ft 446 kts 145°
2026-05-06 19:38 49.66984 15.71698 33573 ft 446 kts 145°
2026-05-06 19:39 49.64724 15.74979 33283 ft 447 kts 145°
2026-05-06 19:39 49.62456 15.78266 33010 ft 447 kts 144°
2026-05-06 19:39 49.60189 15.81549 32741 ft 448 kts 144°
2026-05-06 19:39 49.57909 15.84841 32471 ft 448 kts 144°
2026-05-06 19:40 49.55627 15.88130 32208 ft 449 kts 144°
2026-05-06 19:40 49.53342 15.91419 31892 ft 450 kts 144°
2026-05-06 19:40 49.51082 15.94672 31648 ft 451 kts 144°
2026-05-06 19:40 49.48791 15.97968 31391 ft 452 kts 144°
2026-05-06 19:41 49.46488 16.01272 31136 ft 452 kts 144°
2026-05-06 19:41 49.44182 16.04580 30883 ft 453 kts 144°
2026-05-06 19:41 49.41878 16.07885 30636 ft 454 kts 144°
2026-05-06 19:41 49.39566 16.11196 30390 ft 454 kts 144°
2026-05-06 19:42 49.37249 16.14504 30144 ft 455 kts 144°
2026-05-06 19:42 49.34928 16.17810 29789 ft 455 kts 143°
2026-05-06 19:42 49.32564 16.21135 28159 ft 465 kts 145°
2026-05-06 19:42 49.29982 16.24055 26608 ft 467 kts 153°
2026-05-06 19:43 49.27115 16.26384 25214 ft 467 kts 159°
2026-05-06 19:43 49.24181 16.28549 24121 ft 467 kts 159°
2026-05-06 19:43 49.21290 16.30694 23433 ft 456 kts 158°
2026-05-06 19:43 49.18448 16.32807 22552 ft 450 kts 158°
2026-05-06 19:44 49.15642 16.34888 21744 ft 443 kts 158°
2026-05-06 19:44 49.12904 16.36915 21044 ft 434 kts 158°
2026-05-06 19:44 49.10187 16.38915 20077 ft 434 kts 158°
2026-05-06 19:44 49.07500 16.40888 19223 ft 430 kts 158°
2026-05-06 19:45 49.04810 16.42863 18397 ft 427 kts 158°
2026-05-06 19:45 49.02153 16.44816 17932 ft 418 kts 158°
2026-05-06 19:45 48.99585 16.46711 17654 ft 400 kts 158°
2026-05-06 19:45 48.97134 16.48521 17377 ft 382 kts 158°
2026-05-06 19:46 48.94788 16.50244 17101 ft 367 kts 158°
2026-05-06 19:46 48.92521 16.51906 16849 ft 354 kts 159°
2026-05-06 19:46 48.90323 16.53506 16741 ft 347 kts 159°
2026-05-06 19:46 48.88139 16.55087 16754 ft 347 kts 159°
2026-05-06 19:47 48.85990 16.56641 16758 ft 347 kts 159°
2026-05-06 19:47 48.83808 16.58221 16758 ft 347 kts 159°
2026-05-06 19:47 48.81607 16.59818 16757 ft 349 kts 159°
2026-05-06 19:47 48.79419 16.61376 16757 ft 346 kts 161°
2026-05-06 19:48 48.77147 16.62537 16757 ft 342 kts 169°
2026-05-06 19:48 48.74823 16.63315 16754 ft 342 kts 172°
2026-05-06 19:48 48.72496 16.64075 16761 ft 342 kts 172°
2026-05-06 19:48 48.70170 16.64838 16758 ft 342 kts 172°
2026-05-06 19:49 48.67877 16.65595 16763 ft 342 kts 172°
2026-05-06 19:49 48.65543 16.66366 16758 ft 341 kts 172°
2026-05-06 19:49 48.63225 16.67130 16756 ft 341 kts 172°
2026-05-06 19:49 48.60900 16.67896 16758 ft 341 kts 171°
2026-05-06 19:50 48.58577 16.68661 16761 ft 341 kts 172°
2026-05-06 19:50 48.56240 16.69243 16755 ft 338 kts 182°
2026-05-06 19:50 48.53949 16.68715 16763 ft 332 kts 201°
2026-05-06 19:50 48.51944 16.67034 16763 ft 331 kts 220°
2026-05-06 19:51 48.50446 16.64453 16757 ft 333 kts 238°
2026-05-06 19:51 48.49591 16.61198 16763 ft 337 kts 256°
2026-05-06 19:51 48.49527 16.57649 16758 ft 344 kts 275°
2026-05-06 19:51 48.50313 16.54203 16759 ft 354 kts 295°
2026-05-06 19:52 48.51910 16.51329 16759 ft 365 kts 317°
2026-05-06 19:52 48.54168 16.49491 16758 ft 376 kts 339°
2026-05-06 19:52 48.56733 16.48541 16764 ft 379 kts 344°
2026-05-06 19:52 48.59323 16.47736 16759 ft 380 kts 345°
2026-05-06 19:53 48.61893 16.47000 16759 ft 380 kts 346°
2026-05-06 19:53 48.64453 16.46322 16748 ft 366 kts 350°
2026-05-06 19:53 48.66943 16.46507 16754 ft 353 kts 12°
2026-05-06 19:53 48.69148 16.47926 16750 ft 338 kts 34°
2026-05-06 19:54 48.70803 16.50286 16751 ft 319 kts 56°
2026-05-06 19:54 48.71792 16.53200 16756 ft 308 kts 77°
2026-05-06 19:54 48.72115 16.56349 16756 ft 299 kts 97°
2026-05-06 19:54 48.71801 16.59411 16589 ft 291 kts 115°
2026-05-06 19:55 48.70915 16.62091 16327 ft 279 kts 133°
2026-05-06 19:55 48.69606 16.64189 16068 ft 270 kts 149°
2026-05-06 19:55 48.68023 16.65609 15842 ft 260 kts 164°
2026-05-06 19:55 48.66310 16.66426 15754 ft 257 kts 171°
2026-05-06 19:56 48.64587 16.67006 15758 ft 257 kts 173°
2026-05-06 19:56 48.62832 16.67512 15761 ft 257 kts 174°
2026-05-06 19:56 48.61077 16.68000 15759 ft 256 kts 174°
2026-05-06 19:56 48.59321 16.68496 15728 ft 258 kts 174°
2026-05-06 19:57 48.57562 16.69000 15449 ft 255 kts 175°
2026-05-06 19:57 48.55831 16.68975 15209 ft 245 kts 197°
2026-05-06 19:57 48.54325 16.67854 14959 ft 242 kts 220°
2026-05-06 19:57 48.53303 16.65879 14722 ft 245 kts 243°
2026-05-06 19:58 48.52947 16.63353 14494 ft 253 kts 268°
2026-05-06 19:58 48.53409 16.60754 14407 ft 265 kts 295°
2026-05-06 19:58 48.54677 16.58666 14417 ft 278 kts 323°
2026-05-06 19:58 48.56521 16.57659 14417 ft 287 kts 344°
2026-05-06 19:59 48.58489 16.57065 14420 ft 288 kts 345°
2026-05-06 19:59 48.60455 16.56486 14402 ft 289 kts 345°
2026-05-06 19:59 48.62451 16.55899 13997 ft 293 kts 345°
2026-05-06 19:59 48.64487 16.55789 13651 ft 296 kts 12°
2026-05-06 20:00 48.66302 16.57184 13227 ft 296 kts 46°
2026-05-06 20:00 48.67348 16.59792 12780 ft 289 kts 81°
2026-05-06 20:00 48.67354 16.62730 12342 ft 277 kts 111°
2026-05-06 20:00 48.66450 16.65205 11908 ft 264 kts 140°
2026-05-06 20:01 48.64975 16.66678 11436 ft 256 kts 166°
2026-05-06 20:01 48.63251 16.67322 10969 ft 256 kts 172°
2026-05-06 20:01 48.61489 16.67860 10428 ft 261 kts 172°
2026-05-06 20:01 48.59681 16.68387 9868 ft 267 kts 172°
2026-05-06 20:02 48.57839 16.68920 9279 ft 271 kts 173°
2026-05-06 20:02 48.56001 16.69495 8899 ft 270 kts 171°
2026-05-06 20:02 48.54171 16.70147 8477 ft 268 kts 170°
2026-05-06 20:02 48.52365 16.70823 8131 ft 267 kts 169°
2026-05-06 20:03 48.50563 16.71503 7750 ft 266 kts 170°
2026-05-06 20:03 48.48775 16.72175 7380 ft 264 kts 170°
2026-05-06 20:03 48.46998 16.72836 7016 ft 263 kts 171°
2026-05-06 20:03 48.45224 16.73490 6648 ft 261 kts 171°
2026-05-06 20:04 48.43484 16.74126 6298 ft 260 kts 171°
2026-05-06 20:04 48.41732 16.74765 6011 ft 257 kts 171°
2026-05-06 20:04 48.39981 16.75401 5989 ft 259 kts 171°
2026-05-06 20:04 48.38226 16.76034 5994 ft 259 kts 171°
2026-05-06 20:05 48.36478 16.76668 5994 ft 258 kts 171°
2026-05-06 20:05 48.34742 16.77300 5996 ft 249 kts 171°
2026-05-06 20:05 48.33119 16.77900 5992 ft 231 kts 171°
2026-05-06 20:05 48.31616 16.78454 5994 ft 221 kts 172°
2026-05-06 20:06 48.30112 16.78872 5998 ft 217 kts 181°
2026-05-06 20:06 48.28613 16.78785 5994 ft 213 kts 193°
2026-05-06 20:06 48.27196 16.78211 6000 ft 211 kts 205°
2026-05-06 20:06 48.25823 16.77418 6002 ft 213 kts 193°
2026-05-06 20:07 48.24339 16.77683 6002 ft 224 kts 161°
2026-05-06 20:07 48.23023 16.79029 6002 ft 233 kts 147°
2026-05-06 20:07 48.21790 16.80612 6002 ft 234 kts 146°
2026-05-06 20:07 48.20568 16.82228 6003 ft 234 kts 146°
2026-05-06 20:08 48.19351 16.83845 6004 ft 234 kts 146°
2026-05-06 20:08 48.18118 16.85425 6003 ft 230 kts 154°
2026-05-06 20:08 48.16671 16.86144 6004 ft 215 kts 186°
2026-05-06 20:08 48.15286 16.85613 6006 ft 208 kts 212°
2026-05-06 20:09 48.14244 16.84147 6005 ft 208 kts 237°
2026-05-06 20:09 48.13808 16.82072 6004 ft 215 kts 264°
2026-05-06 20:09 48.14147 16.79853 6005 ft 228 kts 294°
2026-05-06 20:09 48.15292 16.78138 6003 ft 245 kts 327°
2026-05-06 20:10 48.16904 16.77188 6005 ft 249 kts 329°
2026-05-06 20:10 48.18215 16.75692 6006 ft 236 kts 303°
2026-05-06 20:10 48.19180 16.73733 6005 ft 232 kts 296°
2026-05-06 20:10 48.20047 16.71689 6005 ft 231 kts 295°
2026-05-06 20:11 48.20967 16.69693 6004 ft 235 kts 302°
2026-05-06 20:11 48.22132 16.67924 6004 ft 240 kts 314°
2026-05-06 20:11 48.23521 16.66480 6004 ft 245 kts 324°
2026-05-06 20:11 48.25056 16.65366 6003 ft 249 kts 332°
2026-05-06 20:12 48.26715 16.64537 6002 ft 253 kts 339°
2026-05-06 20:12 48.28417 16.63842 6004 ft 254 kts 339°
2026-05-06 20:12 48.30121 16.63133 6001 ft 254 kts 338°
2026-05-06 20:12 48.31823 16.62414 6005 ft 254 kts 339°
2026-05-06 20:13 48.33528 16.61691 5998 ft 254 kts 339°
2026-05-06 20:13 48.35228 16.60969 5997 ft 254 kts 339°
2026-05-06 20:13 48.36929 16.60251 5996 ft 254 kts 339°
2026-05-06 20:13 48.38632 16.59533 5998 ft 254 kts 339°
2026-05-06 20:14 48.40337 16.58815 5995 ft 253 kts 339°
2026-05-06 20:14 48.41983 16.58138 5997 ft 244 kts 344°
2026-05-06 20:14 48.43646 16.58192 5993 ft 242 kts 15°
2026-05-06 20:14 48.45194 16.59213 5996 ft 244 kts 24°
2026-05-06 20:15 48.46695 16.60411 5990 ft 245 kts 25°
2026-05-06 20:15 48.48196 16.61635 5990 ft 245 kts 25°
2026-05-06 20:15 48.49662 16.62838 5975 ft 231 kts 26°
2026-05-06 20:15 48.51043 16.63978 5983 ft 224 kts 26°
2026-05-06 20:16 48.52412 16.65108 5985 ft 224 kts 26°
2026-05-06 20:16 48.53783 16.66231 5956 ft 226 kts 27°
2026-05-06 20:16 48.55295 16.66789 6013 ft 227 kts 356°
2026-05-06 20:16 48.56848 16.66532 5989 ft 223 kts 346°
2026-05-06 20:17 48.58373 16.66129 5977 ft 223 kts 346°
2026-05-06 20:17 48.59905 16.65732 5990 ft 222 kts 347°
2026-05-06 20:17 48.61423 16.65322 5981 ft 221 kts 347°
2026-05-06 20:17 48.62937 16.64913 5985 ft 220 kts 346°
2026-05-06 20:18 48.64448 16.64488 5986 ft 221 kts 343°
2026-05-06 20:18 48.65970 16.64073 5991 ft 222 kts 346°
2026-05-06 20:18 48.67492 16.63661 5990 ft 222 kts 345°
2026-05-06 20:18 48.68502 16.63390 5983 ft 222 kts 346°
2026-05-06 20:19 48.70506 16.62841 5987 ft 220 kts 342°
2026-05-06 20:19 48.71444 16.62266 5983 ft 213 kts 320°
2026-05-06 20:19 48.72325 16.60581 5984 ft 202 kts 284°
2026-05-06 20:19 48.72165 16.57923 5982 ft 195 kts 236°
2026-05-06 20:20 48.71542 16.56944 5982 ft 192 kts 212°
2026-05-06 20:20 48.70324 16.56095 5995 ft 193 kts 202°
2026-05-06 20:20 48.69056 16.55439 5981 ft 193 kts 200°
2026-05-06 20:20 48.67741 16.54775 6006 ft 203 kts 201°
2026-05-06 20:21 48.66393 16.54079 5991 ft 204 kts 200°
2026-05-06 20:21 48.65056 16.53403 5978 ft 203 kts 200°
2026-05-06 20:21 48.63731 16.52740 5854 ft 205 kts 200°
2026-05-06 20:21 48.62380 16.52053 5575 ft 203 kts 201°
2026-05-06 20:22 48.61048 16.51403 5284 ft 201 kts 200°
2026-05-06 20:22 48.59710 16.50746 5048 ft 202 kts 200°
2026-05-06 20:22 48.58363 16.50096 4971 ft 202 kts 200°
2026-05-06 20:22 48.57019 16.49463 4976 ft 202 kts 200°
2026-05-06 20:23 48.55691 16.48826 4981 ft 203 kts 200°
2026-05-06 20:23 48.54330 16.48191 4980 ft 207 kts 200°
2026-05-06 20:23 48.52940 16.47559 4980 ft 208 kts 200°
2026-05-06 20:23 48.51545 16.46946 4986 ft 209 kts 199°
2026-05-06 20:24 48.50135 16.46413 4985 ft 209 kts 197°
2026-05-06 20:24 48.48674 16.46240 4987 ft 213 kts 182°
2026-05-06 20:24 48.47187 16.46349 4987 ft 214 kts 181°
2026-05-06 20:24 48.45696 16.46484 4988 ft 214 kts 180°
2026-05-06 20:25 48.44213 16.46624 4992 ft 213 kts 180°
2026-05-06 20:25 48.42727 16.46771 4991 ft 214 kts 180°
2026-05-06 20:25 48.41266 16.46916 4993 ft 213 kts 180°
2026-05-06 20:25 48.39789 16.47052 4993 ft 213 kts 181°
2026-05-06 20:26 48.38289 16.47197 4994 ft 213 kts 181°
2026-05-06 20:26 48.36862 16.47396 4989 ft 202 kts 175°
2026-05-06 20:26 48.35513 16.47841 5001 ft 195 kts 171°
2026-05-06 20:26 48.34210 16.48369 4976 ft 190 kts 169°
2026-05-06 20:27 48.32961 16.48898 4797 ft 184 kts 170°
2026-05-06 20:27 48.31735 16.49419 4581 ft 182 kts 171°
2026-05-06 20:27 48.30523 16.49935 4346 ft 180 kts 171°
2026-05-06 20:27 48.29335 16.50442 4114 ft 178 kts 171°
2026-05-06 20:28 48.28155 16.50945 3875 ft 176 kts 171°
2026-05-06 20:28 48.27016 16.51433 3638 ft 164 kts 172°
2026-05-06 20:28 48.25934 16.51893 3434 ft 160 kts 172°
2026-05-06 20:28 48.24870 16.52345 3223 ft 157 kts 173°
2026-05-06 20:29 48.23826 16.52789 3026 ft 155 kts 172°
2026-05-06 20:29 48.22793 16.53228 2819 ft 153 kts 172°
2026-05-06 20:29 48.21797 16.53654 2622 ft 140 kts 172°
2026-05-06 20:29 48.20892 16.54039 2446 ft 132 kts 172°
2026-05-06 20:30 48.20027 16.54405 2282 ft 130 kts 173°
2026-05-06 20:30 48.18313 16.55130 1929 ft 129 kts 172°
2026-05-06 20:30 48.17448 16.55497 1767 ft 128 kts 171°
2026-05-06 20:31 48.16593 16.55858 1599 ft 128 kts 170°
2026-05-06 20:31 48.15737 16.56221 1431 ft 127 kts 169°
2026-05-06 20:31 48.14880 16.56586 1248 ft 127 kts 168°
2026-05-06 20:31 48.14026 16.56945 1078 ft 128 kts 165°
2026-05-06 20:32 48.13158 16.57317 893 ft 129 kts 164°
2026-05-06 20:32 48.12300 16.57687 756 ft 129 kts 165°
2026-05-06 20:32 48.11450 16.58027 623 ft 122 kts 162°
2026-05-06 20:32 48.10773 16.58325 618 ft 73 kts 163°
2026-05-06 20:33 48.10438 16.58459 616 ft 34 kts 170°
2026-05-06 20:33 48.10204 16.58427 611 ft 36 kts 194°
2026-05-06 20:33 48.10107 16.58339 625 ft 14 kts 239°
2026-05-06 20:33 48.10102 16.58219 621 ft 10 kts 319°
2026-05-06 20:34 48.10155 16.58165 615 ft 9 kts 334°
2026-05-06 20:34 48.10214 16.58139 618 ft 9 kts 344°
2026-05-06 20:34 48.10288 16.58110 618 ft 14 kts 345°
2026-05-06 20:34 48.10382 16.58074 621 ft 13 kts 345°
2026-05-06 20:35 48.10470 16.58038 619 ft 13 kts 345°
2026-05-06 20:35 48.10555 16.58001 621 ft 13 kts 343°
2026-05-06 20:35 48.10644 16.57962 620 ft 14 kts 343°
2026-05-06 20:35 48.10747 16.57917 618 ft 16 kts 343°
2026-05-06 20:36 48.10861 16.57872 624 ft 17 kts 346°
2026-05-06 20:36 48.10969 16.57828 623 ft 16 kts 343°
2026-05-06 20:36 48.11053 16.57743 613 ft 14 kts 289°
2026-05-06 20:36 48.11093 16.57622 617 ft 12 kts 302°
2026-05-06 20:37 48.11143 16.57484 624 ft 19 kts 296°
2026-05-06 20:37 48.11199 16.57304 623 ft 19 kts 295°
2026-05-06 20:37 48.11258 16.57122 614 ft 19 kts 296°
2026-05-06 20:37 48.11316 16.56947 620 ft 18 kts 296°
2026-05-06 20:38 48.11372 16.56778 614 ft 18 kts 296°
2026-05-06 20:38 48.11424 16.56616 619 ft 17 kts 295°
2026-05-06 20:38 48.11474 16.56459 625 ft 17 kts 296°
2026-05-06 20:38 48.11525 16.56303 614 ft 18 kts 296°
2026-05-06 20:39 48.11581 16.56133 627 ft 18 kts 296°
2026-05-06 20:39 48.11636 16.55964 621 ft 18 kts 295°
2026-05-06 20:39 48.11688 16.55803 619 ft 17 kts 296°
2026-05-06 20:39 48.11737 16.55652 616 ft 16 kts 296°
2026-05-06 20:40 48.11784 16.55509 615 ft 15 kts 296°
2026-05-06 20:40 48.11828 16.55374 618 ft 14 kts 296°
2026-05-06 20:40 48.11881 16.55216 616 ft 19 kts 305°
2026-05-06 20:40 48.11962 16.55187 611 ft 9 kts 345°
2026-05-06 20:41 48.12021 16.55192 611 ft 9 kts 24°
2026-05-06 20:41 48.12087 16.55240 615 ft 13 kts 26°
2026-05-06 20:41 48.12141 16.55272 616 ft 3 kts 347°
2026-05-06 20:41 48.12160 16.55244 623 ft 3 kts 303°
2026-05-06 20:42 48.12168 16.55221 611 ft 2 kts 297°
2026-05-06 20:42 48.12170 16.55214 611 ft 1 kts 297°